• In Deutschland
  • Länderverzeichnis
  • Für 7 Tage
  • Wassertemperatur
  • Satellitenkarten
  • Wetterkarte
  • Widgets
  • user-avatar
    Anmelden

    Stündliche Wetter Wedel

    Heute, 23 Juli, Montag

    Zeit Temperatur Niederschläge Wind Luftdruck Luftfeuchtigkeit
    00:00 +16°C° 0 mm 2 m/S 760 mmHg 93%
    01:00 +15°C° 0 mm 1 m/S 760 mmHg 94%
    02:00 +15°C° 0 mm 1 m/S 760 mmHg 95%
    03:00 +15°C° 0 mm 1 m/S 760 mmHg 95%
    04:00 +15°C° 0 mm 1 m/S 760 mmHg 95%
    05:00 +16°C° 0 mm 1 m/S 760 mmHg 91%
    06:00 +17°C° 0 mm 2 m/S 760 mmHg 86%
    07:00 +19°C° 0 mm 2 m/S 760 mmHg 81%
    08:00 +21°C° 0 mm 2 m/S 761 mmHg 73%
    09:00 +23°C° 0 mm 2 m/S 761 mmHg 64%
    10:00 +25°C° 0 mm 3 m/S 761 mmHg 56%
    11:00 +26°C° 0 mm 3 m/S 761 mmHg 53%
    12:00 +27°C° 0 mm 3 m/S 761 mmHg 50%
    13:00 +28°C° 0 mm 3 m/S 760 mmHg 48%
    14:00 +28°C° 0 mm 3 m/S 760 mmHg 48%
    15:00 +29°C° 0 mm 3 m/S 760 mmHg 49%
    16:00 +29°C° 0 mm 3 m/S 760 mmHg 49%
    17:00 +28°C° 0 mm 3 m/S 760 mmHg 53%
    18:00 +27°C° 0 mm 3 m/S 760 mmHg 57%
    19:00 +26°C° 0 mm 3 m/S 760 mmHg 61%
    20:00 +24°C° 0 mm 2 m/S 760 mmHg 69%
    21:00 +21°C° 0 mm 2 m/S 761 mmHg 77%
    22:00 +20°C° 0 mm 1 m/S 761 mmHg 85%
    23:00 +20°C° 0 mm 1 m/S 761 mmHg 86%

    Morgen, 24 Juli, Dienstag

    Zeit Temperatur Niederschläge Wind Luftdruck Luftfeuchtigkeit
    00:00 +19°C° 0 mm 1 m/S 761 mmHg 88%
    01:00 +19°C° 0 mm 1 m/S 761 mmHg 89%
    02:00 +18°C° 0 mm 1 m/S 761 mmHg 90%
    03:00 +16°C° 0 mm 0 m/S 761 mmHg 90%
    04:00 +16°C° 0 mm 0 m/S 761 mmHg 91%
    05:00 +20°C° 0 mm 1 m/S 761 mmHg 85%
    06:00 +21°C° 0 mm 1 m/S 761 mmHg 78%
    07:00 +23°C° 0 mm 1 m/S 761 mmHg 72%
    08:00 +25°C° 0 mm 1 m/S 761 mmHg 65%
    09:00 +28°C° 0 mm 1 m/S 761 mmHg 57%
    10:00 +30°C° 0 mm 1 m/S 761 mmHg 49%
    11:00 +31°C° 0 mm 1 m/S 760 mmHg 46%
    12:00 +30°C° 0 mm 0 m/S 760 mmHg 43%
    13:00 +32°C° 0 mm 0 m/S 760 mmHg 39%
    14:00 +33°C° 0 mm 1 m/S 759 mmHg 39%
    15:00 +33°C° 0 mm 1 m/S 759 mmHg 39%
    16:00 +33°C° 0 mm 1 m/S 759 mmHg 40%
    17:00 +32°C° 0 mm 1 m/S 759 mmHg 44%
    18:00 +31°C° 0 mm 1 m/S 759 mmHg 48%
    19:00 +29°C° 0 mm 2 m/S 759 mmHg 52%
    20:00 +28°C° 0 mm 2 m/S 759 mmHg 57%
    21:00 +26°C° 0 mm 2 m/S 759 mmHg 62%
    22:00 +24°C° 0 mm 2 m/S 759 mmHg 67%
    23:00 +24°C° 0 mm 2 m/S 759 mmHg 71%

    übermorgen, 25 Juli, Mittwoch

    Zeit Temperatur Niederschläge Wind Luftdruck Luftfeuchtigkeit
    00:00 +23°C° 0 mm 2 m/S 760 mmHg 74%
    01:00 +21°C° 0 mm 2 m/S 760 mmHg 77%
    02:00 +21°C° 0 mm 2 m/S 760 mmHg 78%
    03:00 +21°C° 0 mm 2 m/S 760 mmHg 80%
    04:00 +20°C° 0 mm 2 m/S 760 mmHg 81%
    05:00 +23°C° 0 mm 2 m/S 760 mmHg 77%
    06:00 +24°C° 0 mm 2 m/S 760 mmHg 74%
    07:00 +25°C° 0 mm 2 m/S 760 mmHg 70%
    08:00 +27°C° 0 mm 2 m/S 760 mmHg 62%
    09:00 +29°C° 0 mm 2 m/S 760 mmHg 54%
    10:00 +31°C° 0 mm 2 m/S 760 mmHg 46%
    11:00 +32°C° 0 mm 2 m/S 760 mmHg 45%
    12:00 +32°C° 0 mm 2 m/S 760 mmHg 43%
    13:00 +34°C° 0 mm 2 m/S 759 mmHg 41%
    14:00 +34°C° 0 mm 2 m/S 759 mmHg 41%
    15:00 +34°C° 0 mm 2 m/S 759 mmHg 41%
    16:00 +33°C° 0 mm 1 m/S 759 mmHg 40%
    17:00 +32°C° 0 mm 2 m/S 759 mmHg 44%
    18:00 +31°C° 0 mm 2 m/S 759 mmHg 47%
    19:00 +30°C° 0 mm 2 m/S 759 mmHg 50%
    20:00 +28°C° 0,1 mm 2 m/S 760 mmHg 56%
    21:00 +27°C° 0,1 mm 2 m/S 760 mmHg 63%
    22:00 +25°C° 0,1 mm 3 m/S 760 mmHg 69%
    23:00 +24°C° 0,1 mm 2 m/S 760 mmHg 73%

    26 Juli, Donnerstag

    Zeit Temperatur Niederschläge Wind Luftdruck Luftfeuchtigkeit
    00:00 +23°C° 0,1 mm 2 m/S 760 mmHg 78%
    01:00 +21°C° 0,1 mm 2 m/S 760 mmHg 82%
    02:00 +21°C° 0 mm 2 m/S 761 mmHg 83%
    03:00 +20°C° 0 mm 2 m/S 761 mmHg 84%
    04:00 +20°C° 0 mm 2 m/S 761 mmHg 85%
    05:00 +21°C° 0 mm 2 m/S 761 mmHg 80%
    06:00 +23°C° 0 mm 2 m/S 761 mmHg 76%
    07:00 +25°C° 0 mm 2 m/S 761 mmHg 72%
    08:00 +27°C° 0 mm 2 m/S 761 mmHg 62%
    09:00 +29°C° 0 mm 2 m/S 761 mmHg 53%
    10:00 +31°C° 0 mm 2 m/S 761 mmHg 43%
    11:00 +33°C° 0 mm 3 m/S 761 mmHg 40%
    12:00 +34°C° 0 mm 3 m/S 761 mmHg 37%
    13:00 +35°C° 0 mm 3 m/S 761 mmHg 34%
    14:00 +35°C° 0 mm 3 m/S 760 mmHg 34%
    15:00 +35°C° 0 mm 3 m/S 760 mmHg 34%
    16:00 +35°C° 0 mm 3 m/S 760 mmHg 34%
    17:00 +34°C° 0 mm 3 m/S 760 mmHg 37%
    18:00 +33°C° 0 mm 4 m/S 760 mmHg 41%
    19:00 +32°C° 0 mm 4 m/S 760 mmHg 44%
    20:00 +29°C° 0 mm 3 m/S 760 mmHg 49%
    21:00 +27°C° 0 mm 3 m/S 761 mmHg 55%
    22:00 +24°C° 0 mm 3 m/S 761 mmHg 60%
    23:00 +24°C° 0 mm 3 m/S 761 mmHg 64%

    27 Juli, Freitag

    Zeit Temperatur Niederschläge Wind Luftdruck Luftfeuchtigkeit
    00:00 +23°C° 0 mm 2 m/S 761 mmHg 68%
    01:00 +21°C° 0 mm 2 m/S 761 mmHg 72%
    02:00 +21°C° 0 mm 2 m/S 761 mmHg 75%
    03:00 +20°C° 0 mm 2 m/S 761 mmHg 78%
    04:00 +20°C° 0 mm 2 m/S 761 mmHg 82%
    05:00 +23°C° 0 mm 2 m/S 761 mmHg 76%
    06:00 +24°C° 0 mm 2 m/S 761 mmHg 71%
    07:00 +25°C° 0 mm 2 m/S 761 mmHg 65%
    08:00 +27°C° 0 mm 2 m/S 761 mmHg 58%
    09:00 +29°C° 0 mm 3 m/S 760 mmHg 52%
    10:00 +31°C° 0 mm 3 m/S 760 mmHg 45%
    11:00 +33°C° 0 mm 3 m/S 760 mmHg 41%
    12:00 +34°C° 0 mm 4 m/S 760 mmHg 37%
    13:00 +35°C° 0 mm 4 m/S 759 mmHg 33%
    14:00 +35°C° 0 mm 4 m/S 759 mmHg 34%
    15:00 +34°C° 0 mm 4 m/S 759 mmHg 34%
    16:00 +34°C° 0 mm 4 m/S 759 mmHg 34%
    17:00 +33°C° 0 mm 4 m/S 759 mmHg 38%
    18:00 +32°C° 0 mm 4 m/S 758 mmHg 42%
    19:00 +29°C° 0 mm 4 m/S 758 mmHg 45%
    20:00 +27°C° 0 mm 4 m/S 758 mmHg 54%
    21:00 +25°C° 0 mm 3 m/S 758 mmHg 62%
    22:00 +22°C° 0 mm 3 m/S 759 mmHg 71%
    23:00 +21°C° 0 mm 3 m/S 758 mmHg 77%

    28 Juli, Samstag

    Zeit Temperatur Niederschläge Wind Luftdruck Luftfeuchtigkeit
    00:00 +21°C° 0 mm 2 m/S 758 mmHg 84%
    01:00 +20°C° 0 mm 2 m/S 758 mmHg 90%
    02:00 +20°C° 0 mm 2 m/S 758 mmHg 92%
    03:00 +20°C° 0 mm 2 m/S 758 mmHg 94%
    04:00 +19°C° 0 mm 2 m/S 757 mmHg 96%
    05:00 +21°C° 0 mm 2 m/S 757 mmHg 91%
    06:00 +23°C° 0 mm 2 m/S 757 mmHg 85%
    07:00 +24°C° 0 mm 2 m/S 757 mmHg 80%
    08:00 +27°C° 0 mm 2 m/S 757 mmHg 69%
    09:00 +29°C° 0 mm 1 m/S 757 mmHg 59%
    10:00 +31°C° 0 mm 1 m/S 757 mmHg 48%
    11:00 +33°C° 0 mm 1 m/S 757 mmHg 43%
    12:00 +35°C° 0 mm 2 m/S 757 mmHg 38%
    13:00 +36°C° 0 mm 2 m/S 757 mmHg 33%
    14:00 +35°C° 0 mm 2 m/S 757 mmHg 35%
    15:00 +34°C° 0 mm 3 m/S 757 mmHg 38%
    16:00 +34°C° 0 mm 3 m/S 757 mmHg 40%
    17:00 +32°C° 0,1 mm 4 m/S 758 mmHg 48%
    18:00 +29°C° 0,1 mm 4 m/S 758 mmHg 56%
    19:00 +27°C° 0,1 mm 4 m/S 758 mmHg 64%
    20:00 +25°C° 0,3 mm 4 m/S 759 mmHg 73%
    21:00 +22°C° 0,3 mm 3 m/S 759 mmHg 82%
    22:00 +20°C° 0,3 mm 3 m/S 759 mmHg 91%
    23:00 +20°C° 0,1 mm 3 m/S 760 mmHg 92%
    Mehr zeigen